This is the latest recevied weather packets stored in our database for station/object OZ7MKS. If no packets are shown the sender has not sent any weather packets the latest 10 day(s).
| Time | Temp. | Humidity | Pressure | Rain* | Wind** | Luminosity | Snow |
|---|---|---|---|---|---|---|---|
| 1777968304 | 10° C | 72% | 1012.6 hPa | 0 mm | - | - | - |
| 1777963803 | 8.33° C | 78% | 1012.6 hPa | 0 mm | - | - | - |
| 1777962304 | 8.33° C | 81% | 1012.7 hPa | 0 mm | - | - | - |
| 1777959904 | 7.22° C | 85% | 1012.6 hPa | 0 mm | - | - | - |
| 1777958704 | 7.22° C | 89% | 1012.6 hPa | 0 mm | - | - | - |
| 1777958404 | 7.22° C | 90% | 1012.4 hPa | 0 mm | - | - | - |
| 1777957805 | 6.67° C | 92% | 1012.4 hPa | 0 mm | - | - | - |
| 1777957204 | 6.67° C | 93% | 1012.4 hPa | 0 mm | - | - | - |
| 1777956904 | 6.11° C | 93% | 1012.4 hPa | 0 mm | - | - | - |
| 1777955405 | 6.11° C | 95% | 1012.3 hPa | 0 mm | - | - | - |
| 1777953004 | 6.11° C | 95% | 1012.1 hPa | 0 mm | - | - | - |
| 1777952704 | 6.11° C | 95% | 1012.1 hPa | 0 mm | - | - | - |
| 1777950903 | 7.22° C | 95% | 1012.2 hPa | 0 mm | - | - | - |
| 1777949404 | 6.67° C | 96% | 1012.1 hPa | 0 mm | - | - | - |
| 1777947904 | 6.67° C | 95% | 1012.2 hPa | 0 mm | - | - | - |
| 1777947604 | 6.11° C | 95% | 1012.3 hPa | 0 mm | - | - | - |
| 1777945804 | 6.11° C | 95% | 1012.4 hPa | 0 mm | - | - | - |
| 1777943704 | 5.56° C | 95% | 1012.4 hPa | 0 mm | - | - | - |
| 1777942204 | 5.56° C | 95% | 1012.5 hPa | 0 mm | - | - | - |
| 1777941603 | 6.11° C | 94% | 1012.6 hPa | 0 mm | - | - | - |
| 1777940404 | 6.11° C | 94% | 1012.7 hPa | 0 mm | - | - | - |
| 1777939504 | 6.11° C | 94% | 1012.7 hPa | 0 mm | - | - | - |
| 1777937704 | 6.11° C | 95% | 1012.8 hPa | 0 mm | - | - | - |
| 1777937104 | 6.11° C | 95% | 1012.8 hPa | 0 mm | - | - | - |
| 1777933504 | 6.11° C | 94% | 1012.9 hPa | 0 mm | - | - | - |
* Rain latest hour (hover to see other rain measurements)
** Current wind speed in m/s (hover to see current wind gust speed)